FENGYUN 1C DEB, 31386

Orbit data source: Space-Track

FENGYUN 1C DEB, 31386 is space debris in SSO originally from a launch on Mon, 10 May 1999 UTC launched from the Taiyaun Space Center, China (TSC). Fengyun 1C debris stems from the Chinese weather satellite Fengyun-1C, which was intentionally destroyed by a Chinese anti-satellite missile in 2007. This event dramatically increased the amount of space debris, with thousands of trackable fragments posing hazards to satellites and human spaceflight. The Fengyun 1C debris cloud has become a focal point in discussions about space sustainability and the need for international regulations to prevent the creation of new debris.

Loading next visibility...
Identifier
31386, 1999-025BSS
Orbit
SSO
Country
Flag of CNCN / PRC
Related business
Manufacturer
Unknown
Mission
Spacecraft
Bus & Motor
Unknown
Mass
Unknown
Launch date (UTC)
1999-05-10 (27 years ago)
Launch vehicle
Unknown
Launch site
Taiyaun Space Center, China (TSC)
Object type
Payload
Rocket body
Debris
Shape & HBR
Unknown shape, 0.1 m
Radar Cross Section
Medium (>0.1 m² and <1 m²)

Expand to show TLE details & history
Last TLE update: 11 hours ago

TLE from 11 hours ago
0 FENGYUN 1C DEB
1 31386U 99025BSS 26254.40944708  .00001603  00000-0  12026-2 0  9994
2 31386  98.4406 247.9121 0194065 255.1727 102.7864 13.87309630976419
Epoch: 2026-09-11T09:49Z
TLE epoch observation values (Epoch: 2026-09-11T09:49:36.227Z)
Latitude
-0.00001°
Longitude
110.07794°
Altitude
974.985 km
Speed
7.347 km/s
True Right ascension
16h 31m 38s
True Declination
0° 00' 00"
Sunlit
Object was in daylight at epoch
Visualization orbit readout
Latitude
Unknown
Longitude
Unknown
Altitude
Unknown
Speed
Unknown
Apparent Right ascension
Unknown
Apparent Declination
Unknown
Sunlit
N/A
Visualization observer readout
Local Sidereal Time
13:42:19
Azimuth
Unknown
Elevation
Unknown
Doppler factor
Unknown
Orbital elements
Apogee altitude
1,077.19 km
Perigee altitude
793.335 km
Semi-major axis
7,313.4 km
Eccentricity
0.01941
Inclination
98.4406°
RAAN
247.9121°
Arg. of periapsis
255.1727°
True anomaly
104.94298°
Mean anomaly
102.7864°
Eccentric anomaly
103.86591°
Mean motion
3.47028 °/min
Orbital period
103.74 mins
BSTAR
0.0012026
Loading maneuver chart data...
Computing Atmospheric mass density...
Loading historical data...
Loading historical data...
Loading historical data...
Loading historical data...
Loading historical data...
Loading historical data...
Loading historical data...

Documentation

Showing up to 5 results
|